Location: Ash Swamp
(41.5170°N, 74.6157°W)
Time: 17:19:04
(UTC+00:00)

Cosmos 2333 Rocket - Pass Details

Date: 14 July 2020
Orbit: 837 x 864 km, 70.8° (Epoch: 05 August)

Event Time Altitude Azimuth Distance (km) Brightness Sun altitude
Rises 01:49:12 0° 231° (SW) 3,398 5.4 -12.4°
Reaches altitude 10° 01:51:53 10° 241° (WSW) 2,470 4.8 -12.7°
Maximum altitude 01:56:56 32° 304° (NW) 1,419 4.2 -13.4°
Drops below altitude 10° 02:02:03 10° 7° (N) 2,499 5.2 -14.1°
Sets 02:04:48 0° 17° (NNE) 3,443 5.8 -14.4°
